[[{"header":{"parameterUnit":"m.s-1","parameterCategory":1,"la1":30.2991,"la2":30.254,"lo1":-89.0895,"lo2":-89.0444,"dy":0.0017,"dx":0.0017,"nx":28,"ny":28,"refTime":"2024-02-03T09:00:00:Z","depth":0,"parameterNumber":2,"parameterNumberName":"U-component_of_WINDS"},"data":[0,0,0,0,0,0,0,0,0,0,0,0,0,0,0,0,0,0,0,0,0,0,0,0,0,0,0,0,0,0,0,0,0,0,0,0,0,0,0,0,0,0,0,0,0,0,0,0,0,0,0,0,0,0,0,0,0,0,1.8053,1.8055,0,1.8201,1.8203,1.8204,1.8219,1.8217,1.8216,1.8214,1.8369,1.8375,1.838,0,0,0,0,0,0,0,0,0,0,0,0,0,1.7786,1.779,1.8053,1.8055,1.8057,1.8201,1.8203,1.8205,1.8219,1.8217,1.8215,1.8213,1.8368,1.8374,1.8381,0,0,0,0,0,0,0,0,0,0,0,0,0,1.7915,1.7792,1.8053,1.8081,1.8085,1.82,1.8203,1.8205,1.8219,1.8217,1.8215,1.8213,1.8365,1.8373,1.8382,1.848,0,0,1.8407,1.8411,0,0,0,0,0,0,0,0,1.7907,1.7924,1.8075,1.8079,1.8084,1.8189,1.8165,1.8297,1.822,1.8169,1.8214,1.8211,1.8311,1.8324,1.8357,1.8487,1.8494,1.8408,1.8413,1.8417,1.8419,0,0,0,0,0,0,0,1.7898,1.7918,1.8112,1.8077,1.8083,1.8087,1.8103,1.819,1.8251,1.8173,1.8174,1.8191,1.8313,1.8349,1.8361,1.8496,1.8408,1.8415,1.842,1.8424,1.8713,1.8716,0,0,0,0,0,0,1.7884,1.7911,1.8107,1.8116,1.7988,1.8094,1.8112,1.8158,1.825,1.8262,1.8193,1.8191,1.8336,1.8351,1.8366,1.8487,1.8417,1.8424,1.8429,1.8711,1.8714,1.8717,0,0,0,0,0,0,1.7878,1.7901,1.8101,1.8014,1.8039,1.8101,1.8153,1.8162,1.8197,1.8266,1.8277,1.8218,1.8335,1.8355,1.8451,1.8492,1.8428,1.8436,1.8707,1.8712,1.8715,1.8728,0,0,0,0,0,0,1.787,1.7899,1.7936,1.8014,1.8044,1.8182,1.8155,1.8166,1.8211,1.821,1.8292,1.8303,1.8334,1.8438,1.8459,1.8503,1.8442,1.8704,1.8709,1.8714,1.8724,1.8732,1.8739,0,0,0,0,0,1.786,1.7935,1.7938,1.7961,1.8092,1.8185,1.8202,1.8235,1.8214,1.8253,1.8297,1.8301,1.8484,1.8448,1.8472,1.8518,1.8702,1.8708,1.8714,1.8721,1.8731,1.8739,0,0,0,0,0,0,1.7861,1.7946,1.795,1.8052,1.8111,1.8187,1.8236,1.8244,1.8311,1.8308,1.8347,1.8365,1.846,1.8499,1.8457,1.8618,1.8591,1.8602,1.8589,1.8598,1.8605,1.8594,1.8449,0,0,0,0,0,1.7873,1.794,1.8011,1.8094,1.8123,1.8174,1.8216,1.8236,1.83,1.8325,1.8376,1.8438,1.851,1.8556,1.8626,1.873,1.8748,1.8774,1.8781,1.8786,1.8795,1.8853,1.8865,1.8737,1.8736,1.8736,0,0,1.7898,1.7953,1.7993,1.8095,1.8143,1.8213,1.8196,1.827,1.8322,1.8337,1.843,1.847,1.8542,1.8642,1.8689,1.8678,1.8835,1.8794,1.8798,1.8804,1.886,1.8872,1.8883,1.8741,1.874,1.8739,0,0,1.798,1.8028,1.8102,1.815,1.8222,1.8256,1.8274,1.8349,1.8375,1.847,1.8482,1.8545,1.8668,1.8718,1.876,1.8859,1.8866,1.8881,1.8919,1.8974,1.8984,1.8993,1.9028,1.9041,1.889,1.889,1.889,0,1.8003,1.8107,1.8139,1.8213,1.8258,1.8272,1.8348,1.8394,1.8486,1.8516,1.8502,1.8655,1.8705,1.8817,1.8841,1.8875,1.8896,1.8872,1.898,1.899,1.8999,1.9032,1.9046,1.8891,1.8891,1.8891,1.8891,0,1.8131,1.8203,1.8254,1.8341,1.8391,1.8466,1.851,1.8557,1.8573,1.8608,1.8704,1.8764,1.8845,1.8874,1.8891,1.8988,1.8979,1.8972,1.8946,1.9012,1.9044,1.9057,1.8893,1.8893,1.8893,1.8892,0,0,1.8217,1.832,1.8338,1.8378,1.8458,1.8515,1.859,1.8669,1.8708,1.8772,1.8835,1.8938,1.8932,1.8979,1.9002,1.9051,1.9125,1.9038,1.904,1.9051,1.9235,1.9239,1.9254,1.9129,1.9132,1.9134,1.9229,0,1.8308,1.844,1.8471,1.8585,1.8652,1.8667,1.8733,1.8789,1.8824,1.8887,1.8926,1.8998,1.8985,1.9013,1.9062,1.9105,1.9162,1.9099,1.919,1.9192,1.917,1.9271,1.9276,1.9362,1.9242,1.9244,1.9246,0,1.8431,1.8494,1.8615,1.8686,1.8715,1.8773,1.8847,1.8907,1.8972,1.8994,1.9046,1.9063,1.9142,1.9112,1.9222,1.9178,1.9217,1.9244,1.9248,1.9258,1.9223,1.9282,1.9391,1.9404,1.9266,1.9265,1.9263,0,1.848,1.8597,1.8684,1.8717,1.8802,1.8843,1.888,1.8943,1.8988,1.9053,1.9082,1.9157,1.9197,1.9254,1.9291,1.9266,1.9398,1.9371,1.9418,1.9417,1.9445,1.9443,1.9561,1.9471,1.9471,1.9471,1.9471,0,1.8577,1.865,1.8707,1.876,1.8842,1.8878,1.8958,1.8996,1.9052,1.9113,1.9131,1.9189,1.9234,1.9298,1.9328,1.9414,1.9433,1.9453,1.946,1.9451,1.9448,1.9476,1.9471,1.9474,1.9474,1.9473,1.9472,0,1.8647,1.8688,1.8783,1.8856,1.8876,1.8933,1.8995,1.9048,1.9083,1.916,1.9181,1.9236,1.9312,1.9355,1.9451,1.9471,1.9566,1.9571,1.9544,1.9546,1.9591,1.9586,1.9731,1.9751,1.9649,1.965,1.9651,0,1.8706,1.8762,1.884,1.8881,1.8919,1.8987,1.9032,1.907,1.9116,1.9194,1.9237,1.9314,1.9377,1.9498,1.9548,1.9621,1.9627,1.9673,1.9638,1.9627,1.9626,1.9622,1.9628,1.9678,1.9679,1.968,1.9681,0,1.8805,1.8823,1.8887,1.8958,1.9011,1.907,1.9128,1.9161,1.9208,1.926,1.9337,1.9386,1.9483,1.9559,1.9636,1.9676,1.9686,1.9691,1.9706,1.9697,1.9678,1.9688,1.9559,1.9687,1.9687,1.9686,1.9686,1.9686,1.8871,1.8921,1.8983,1.9054,1.9101,1.9155,1.9207,1.9248,1.9313,1.9394,1.9413,1.9494,1.9557,1.9662,1.9703,1.9768,1.9759,1.9781,1.9786,1.9791,1.9791,1.9668,1.9782,1.9782,1.9782,1.9782,1.9782,0,1.8971,1.9011,1.9076,1.9156,1.9211,1.9215,1.9279,1.9326,1.9396,1.9454,1.9516,1.9604,1.9678,1.9732,1.9808,1.9849,1.9855,1.9867,1.9864,1.9873,1.9795,1.9775,1.986,1.986,1.986,1.986,1.986,1.986,1.9029,1.9113,1.9138,1.9246,1.9287,1.9366,1.9402,1.9451,1.9497,1.9595,1.9655,1.969,1.9747,1.9826,1.9894,1.9908,1.9935,1.9946,1.9961,1.9887,1.9878,1.987,1.9851,1.9952,1.9952,2.0033,2.0033,2.0034]},{"header":{"parameterUnit":"m.s-1","parameterCategory":1,"la1":30.2991,"la2":30.254,"lo1":-89.0895,"lo2":-89.0444,"dy":0.0017,"dx":0.0017,"nx":28,"ny":28,"refTime":"2024-02-03T09:00:00:Z","depth":0,"parameterNumber":3,"parameterNumberName":"V-component_of_WINDS"},"data":[0,0,0,0,0,0,0,0,0,0,0,0,0,0,0,0,0,0,0,0,0,0,0,0,0,0,0,0,0,0,0,0,0,0,0,0,0,0,0,0,0,0,0,0,0,0,0,0,0,0,0,0,0,0,0,0,0,0,2.4408,2.4409,0,2.4473,2.4474,2.4474,2.4524,2.4525,2.4525,2.4526,2.4586,2.4587,2.4589,0,0,0,0,0,0,0,0,0,0,0,0,0,2.4321,2.4322,2.4408,2.4409,2.441,2.4473,2.4474,2.4475,2.4524,2.4525,2.4525,2.4526,2.4586,2.4587,2.4589,0,0,0,0,0,0,0,0,0,0,0,0,0,2.4369,2.4323,2.4408,2.4442,2.4446,2.4473,2.4474,2.4475,2.4524,2.4525,2.4525,2.4526,2.4585,2.4587,2.4589,2.4585,0,0,2.4594,2.4595,0,0,0,0,0,0,0,0,2.4367,2.4373,2.4436,2.444,2.4444,2.4491,2.4465,2.4512,2.4524,2.4494,2.4526,2.4526,2.4554,2.4558,2.4569,2.4588,2.4591,2.4594,2.4595,2.4596,2.4597,0,0,0,0,0,0,0,2.4363,2.437,2.4434,2.4437,2.4442,2.4452,2.446,2.4474,2.4519,2.4497,2.4501,2.4508,2.4556,2.4567,2.457,2.4592,2.4594,2.4596,2.4597,2.4598,2.461,2.461,0,0,0,0,0,0,2.4355,2.4367,2.4432,2.4436,2.4407,2.4453,2.4462,2.4475,2.4519,2.4526,2.4507,2.451,2.4563,2.4568,2.4573,2.4571,2.4596,2.4598,2.4599,2.4611,2.461,2.4609,0,0,0,0,0,0,2.4353,2.4361,2.4429,2.4402,2.4412,2.4454,2.4469,2.4476,2.4487,2.4527,2.4534,2.451,2.4564,2.457,2.4582,2.4574,2.4599,2.46,2.4612,2.4611,2.461,2.4568,0,0,0,0,0,0,2.4351,2.436,2.436,2.4402,2.4413,2.4439,2.4468,2.4477,2.4491,2.4495,2.4532,2.4539,2.4565,2.4579,2.4584,2.4577,2.4602,2.4613,2.4611,2.461,2.457,2.4565,2.4561,0,0,0,0,0,2.4347,2.4345,2.436,2.4367,2.4415,2.4438,2.4444,2.4477,2.449,2.449,2.4515,2.4537,2.4574,2.458,2.4585,2.4579,2.4613,2.4612,2.461,2.4572,2.4566,2.4561,0,0,0,0,0,0,2.4299,2.4351,2.4368,2.438,2.4404,2.4447,2.4448,2.447,2.449,2.4493,2.453,2.4538,2.4545,2.4563,2.4569,2.4577,2.4596,2.4596,2.4565,2.456,2.4556,2.4551,2.4603,0,0,0,0,0,2.429,2.4306,2.435,2.4355,2.4367,2.4405,2.4416,2.4439,2.4466,2.4476,2.4502,2.4525,2.4542,2.4552,2.457,2.4573,2.4581,2.4571,2.4566,2.4563,2.4561,2.4564,2.4559,2.4604,2.4604,2.4604,0,0,2.427,2.4301,2.4309,2.4346,2.4369,2.4383,2.4414,2.4428,2.4438,2.4477,2.4491,2.451,2.4539,2.4546,2.455,2.4561,2.4551,2.456,2.4557,2.4558,2.4561,2.4557,2.4553,2.4603,2.4603,2.4603,0,0,2.4243,2.4268,2.4275,2.4297,2.4331,2.4356,2.4357,2.4396,2.4412,2.4426,2.4455,2.4467,2.4495,2.4514,2.4527,2.4506,2.4527,2.4511,2.4488,2.4489,2.4486,2.4483,2.4475,2.4471,2.4509,2.4509,2.4509,0,2.4214,2.4239,2.4276,2.4289,2.4304,2.4341,2.4348,2.4366,2.4403,2.4411,2.4423,2.4459,2.4481,2.4493,2.4487,2.4497,2.4499,2.4507,2.4484,2.4481,2.4479,2.4471,2.4468,2.4507,2.4507,2.4508,2.4508,0,2.4202,2.4219,2.422,2.4257,2.4272,2.4281,2.4317,2.4328,2.4349,2.4372,2.4385,2.4412,2.4436,2.444,2.446,2.4454,2.446,2.4477,2.4497,2.4472,2.4465,2.4463,2.4504,2.4505,2.4505,2.4506,0,0,2.4146,2.4203,2.4203,2.4219,2.4259,2.4271,2.4281,2.4306,2.4314,2.4338,2.4346,2.4369,2.4385,2.44,2.4422,2.4424,2.4404,2.4441,2.4442,2.4432,2.4399,2.4385,2.4381,2.4418,2.4418,2.4418,2.4396,0,2.4124,2.4147,2.418,2.4191,2.4206,2.4242,2.4251,2.4275,2.4296,2.4311,2.4334,2.4349,2.437,2.4379,2.4382,2.4406,2.4398,2.4408,2.4425,2.4425,2.4417,2.4378,2.4364,2.4343,2.4394,2.4393,2.4393,0,2.4102,2.4126,2.4139,2.4177,2.4185,2.4192,2.4217,2.4231,2.4258,2.4274,2.429,2.4315,2.4325,2.4343,2.4358,2.4364,2.4373,2.4385,2.4385,2.4388,2.4407,2.4379,2.4337,2.4333,2.439,2.439,2.439,0,2.4059,2.4094,2.4107,2.412,2.4164,2.4169,2.4187,2.4215,2.4228,2.4249,2.4257,2.4278,2.429,2.4304,2.4333,2.4344,2.4344,2.4365,2.4356,2.4355,2.4354,2.4354,2.4312,2.436,2.436,2.436,2.436,0,2.4032,2.4038,2.4088,2.4095,2.4103,2.414,2.4146,2.4167,2.4192,2.4202,2.4234,2.4243,2.428,2.4293,2.4315,2.4323,2.4328,2.434,2.4345,2.4337,2.4335,2.4343,2.4345,2.4359,2.4359,2.4359,2.436,0,2.3985,2.4019,2.4035,2.4076,2.4087,2.409,2.4125,2.4132,2.4156,2.4169,2.4174,2.421,2.4227,2.4258,2.4282,2.4297,2.43,2.431,2.4291,2.4295,2.4284,2.4284,2.4246,2.4242,2.4292,2.4292,2.4291,0,2.3965,2.3971,2.4014,2.4024,2.4042,2.4058,2.4072,2.4107,2.412,2.4151,2.4154,2.4174,2.4191,2.4216,2.4243,2.4262,2.4272,2.4257,2.4275,2.4266,2.4272,2.4271,2.4271,2.4253,2.4252,2.4252,2.4251,0,2.3926,2.3942,2.3962,2.3987,2.4003,2.4023,2.4046,2.4052,2.4092,2.4104,2.4122,2.4136,2.4162,2.418,2.4203,2.422,2.4241,2.4246,2.4245,2.4236,2.4224,2.423,2.428,2.4246,2.4247,2.4247,2.4248,2.4248,2.3892,2.3899,2.393,2.395,2.3971,2.3991,2.4,2.4026,2.4042,2.4068,2.4087,2.4104,2.4129,2.4163,2.4178,2.419,2.42,2.4199,2.4198,2.4197,2.4194,2.4223,2.4194,2.4194,2.4195,2.4195,2.4195,0,2.3854,2.3876,2.3894,2.3925,2.3941,2.3962,2.3988,2.3998,2.4014,2.4037,2.4054,2.4074,2.4092,2.4121,2.4141,2.4145,2.4155,2.4149,2.4149,2.4152,2.4183,2.4182,2.414,2.414,2.414,2.414,2.414,2.414,2.3836,2.3849,2.3869,2.3892,2.3913,2.3931,2.3944,2.3962,2.3981,2.4003,2.4019,2.4038,2.4063,2.4085,2.4102,2.411,2.4115,2.4105,2.4116,2.4145,2.415,2.4155,2.4154,2.4106,2.4106,2.4084,2.4083,2.4083]}]]